Location: Mohawk View
(42.7837°N, 73.7885°W)
Time: 07:38:11
(UTC+00:00)

Cosmos 1428 Rocket - Pass Details

Date: 17 June 2021
Orbit: 947 x 989 km, 82.9° (Epoch: 27 July)

Event Time Altitude Azimuth Distance (km) Brightness Sun altitude
Exits shadow 07:13:08 22° 188° (S) 2,005 5.6 -16.7°
Maximum altitude 07:17:25 86° 275° (W) 996 4.5 -16.3°
Drops below altitude 10° 07:23:46 10° 7° (N) 2,749 7.8 -15.6°
Sets 07:26:17 0° 8° (N) 3,696 8.7 -15.3°
